Location: Great Malvern
(52.1167°N, 2.3167°W)
Time: 15:56:48
(UTC+00:00)

Cosmos 1725 Rocket - Pass Details

Date: 18 September 2020
Orbit: 961 x 991 km, 82.9° (Epoch: 21 October)

Event Time Altitude Azimuth Distance (km) Brightness Sun altitude
Rises 18:47:10 0° 194° (SSW) 3,684 7.1 -5.6°
Reaches altitude 10° 18:49:42 10° 197° (SSW) 2,736 6.5 -6.0°
Maximum altitude 18:55:58 73° 282° (WNW) 1,024 4.4 -6.9°
Drops below altitude 10° 19:02:15 10° 8° (N) 2,733 6.4 -7.8°
Sets 19:04:46 0° 10° (N) 3,680 7.1 -8.2°
